Flag for Germany Weather past 2 weeks in Bretten, Baden-Württemberg, Germany

Now
35 °F

Haze.


Feels Like: 27 °F
Forecast: 8 / 33 °F
Wind: 9 mph from Southeast

Location: Baden Wurttemberg Neuostheim

Current Time: Dec 27, 2014 at 9:07:55 AM

Latest Report: Dec 27, 2014 at 7:00 AM


Visibility: 38 mi

Pressure: 29.76 "Hg

Humidity: 89%

Dew point: 32 °F

Location of BrettenLocation

Historic Weather in Bretten — Graph

°F

Bretten temperature yesterday

Maximum temperature yesterday: 41 °F (at 2:00 PM)
Minimum temperature yesterday: 32 °F (at 7:00 AM)
Average temperature yesterday: 36 °F

Past Weeks' High & Low Weather Summary

 TemperatureHumidityPressure
High54 °F (Dec 13, 2:00 AM)98% (Dec 17, 1:00 AM)30.50 "Hg (Dec 17, 1:00 AM)
Low32 °F (Dec 26, 7:00 AM)64% (Dec 13, 2:00 AM)29.71 "Hg (Dec 12, 11:00 PM)
Average42 °F87%30.18 "Hg
* Reported Dec 12 11:00 PM — Dec 27 7:00 AM, Bretten, Weather by CustomWeather, © 2014

Note: Actual official high and low records may vary slightly from our data, if they occured in-between our weather recording intervals... More about our weather records

Advertising

Bretten weather history for previous 24 hours

 ConditionsComfort  
Time TempWeatherWind HumidityBarometerVisibility
7:00 AM
Dec 27
35 °FHaze.9 mph89%29.76 "Hg37 mi
6:00 AM36 °FPassing clouds.7 mph82%29.83 "Hg28 mi
5:00 AM35 °FOvercast.5 mph87%29.90 "Hg16 mi
4:00 AM35 °FOvercast.6 mph89%29.97 "Hg43 mi
3:00 AM34 °FOvercast.5 mph93%30.05 "Hg43 mi
2:00 AM34 °FOvercast.5 mph94%30.11 "Hg43 mi
1:00 AM33 °FPassing clouds.5 mph97%30.16 "Hg7 mi
12:00 AM33 °FOvercast.5 mph95%30.21 "Hg43 mi
11:00 PM
Dec 26
34 °FClear.5 mph96%30.24 "Hg43 mi
10:00 PM35 °FLight rain. Overcast.3 mph98%30.28 "Hg43 mi
9:00 PM33 °FOvercast.2 mph98%30.32 "Hg43 mi
8:00 PM34 °FOvercast.1 mph98%30.34 "Hg10 mi
7:00 PM35 °FOvercast.2 mph97%30.36 "Hg11 mi
6:00 PM35 °FOvercast.2 mph97%30.37 "Hg43 mi
5:00 PM36 °FOvercast.2 mph97%30.38 "Hg7 mi
4:00 PM36 °FRain. Low clouds.2 mph93%30.39 "Hg2 mi
3:00 PM40 °FLight freezing rain. Overcast.1 mph80%30.39 "Hg12 mi
2:00 PM41 °FOvercast.2 mph76%30.40 "Hg19 mi
1:00 PM40 °FOvercast.2 mph79%30.42 "Hg19 mi
12:00 PM40 °FLight rain. Overcast.2 mph81%30.43 "Hg10 mi
11:00 AM39 °FOvercast.1 mph88%30.45 "Hg18 mi
10:00 AM36 °FOvercast.1 mph98%30.44 "Hg11 mi
9:00 AM33 °FOvercast.1 mph98%30.44 "Hg8 mi
Weather by CustomWeather, © 2014

See weather overviewHow to use our weather pages